Tracking 25195 objects as of 20-Jan-2022
HD Live streaming from Space Station
objects crossing your sky now

TITAN 4 R/B

Track TITAN 4 R/B now!
10-day predictions


NORAD ID: 20642
Int'l Code: 1990-050E
Perigee: 426.8 km
Apogee: 1,786.2 km
Inclination: 63.3 °
Period: 107.2 minutes
Semi major axis: 7477 km
RCS: Unknown
Launch date: June 8, 1990
Source: United States (US)
Launch site: AIR FORCE EASTERN TEST RANGE (AFETR)

Note: This is a ROCKET BODY
aabbcc
Your satellite tracking list
Your tracking list is empty




NASA's NSSDC Master Catalog

Two Line Element Set (TLE):
1 20642U 90050E   22019.24214429 0.00000900  00000-0  10599-3 0    09
2 20642  63.3014 158.0112 0908949  54.4008 305.5991 13.42670188    03
Source of the keplerian elements: McCants